Showing default

GEESAT 4-01, 65119

Orbit data source: Space-Track

GEESAT 4-01, 65119 is a payload satellite owned by GeeSpace (CN) in LEO that was launched on Fri, 08 Aug 2025 UTC via a JIELONG-3 launch vehicle from the Yellow Sea Launch Area, China (YSLA). Payload-class satellites include a variety of spacecraft equipped with specific instruments for various scientific and technological missions. These include communications satellites like Starlink; space stations such as the ISS; scientific satellites like the Hubble; Earth observation satellites from companies like Planet Labs, Umbra, and HawkEye 360; GPS; miniature CubeSats for education and research; and military/defense satellites.

Loading next visibility...
Identifier
65119, 2025-170A
Orbit
LEO
Country
Flag of CNCN / PRC
Related business
Manufacturer
GWCG
Mission
Operational Commercial Navigation
Bus & Motor
GPS100, Unknown motor
Mass
130 kg wet, 130 kg dry
Launch date (UTC)
2025-08-08 (6 months ago)
Launch vehicle
JIELONG-3
Launch site
Yellow Sea Launch Area, China (YSLA)
Object type
Payload
Rocket body
Debris
Shape & HBR
Box + 2 Pan, 1.0 m
Radar Cross Section
0.833 m², Medium (>0.1 m² and < 1m²)

Expand to show TLE details & history
Last TLE update: 16 hours ago

TLE from 16 hours ago
0 GEESAT 4-01
1 65119U 25170A   26034.62057603  .00003016  00000-0  38804-3 0  9997
2 65119  49.9871  73.7568 0011379 259.3238 100.6419 14.83680054 26605
Epoch: 2026-02-03T14:53Z
TLE epoch observation values (Epoch: 2026-02-03T14:53:37.768Z)
Latitude
0.00001°
Longitude
76.55055°
Altitude
619.753 km
Speed
7.549 km/s
True Right ascension
04h 55m 01s
True Declination
0° 00' 00"
Sunlit
Object was in full shadow at epoch
Visualization orbit readout
Latitude
Unknown
Longitude
Unknown
Altitude
Unknown
Speed
Unknown
Apparent Right ascension
Unknown
Apparent Declination
Unknown
Sunlit
N/A
Visualization observer readout
Local Sidereal Time
08:36:50
Azimuth
Unknown
Elevation
Unknown
Doppler factor
Unknown
Orbital elements
Apogee altitude
626.454 km
Perigee altitude
610.531 km
Semi-major axis
6,996.629 km
Eccentricity
0.00114
Inclination
49.9871°
RAAN
73.7568°
Arg. of periapsis
259.3238°
True anomaly
100.77002°
Mean anomaly
100.6419°
Eccentric anomaly
100.70596°
Mean motion
3.7086 °/min
Orbital period
97.07 mins
BSTAR
0.00038804
Loading maneuver chart data...
Computing Atmospheric mass density...
Loading historical data...
Loading historical data...
Loading historical data...
Loading historical data...
Loading historical data...
Loading historical data...
Loading historical data...

Documentation

Showing up to 5 results
|